Hayfield, Middle Canyon, Santa Catalina Island Weather observations

Data are for 10 minute period ending at time listed.
 Day   Time   Solar   Ave.   Ave.  Ave.  Vector    Max.   Stn.    Total
  of    of     Rad.   Air    Rel.  Wind   Wind     Wind   Baro.  Precip. 
Year   Day            Temp.  Hum.  Speed  Dir.     Gust   Pres.          
2014   (PST)   W/m2    F      %     mph   deg.      mph    mb.     in.   
-------------------------------------------------------------------------
 293   13:50  459.3    71   78.2     6    284.6    10.5    999.0   0.00
 293   14:00  399.9    70   79.3     7    294.9    12.2    999.0   0.00
 293   14:10  422.6    69   81.1     7    296.9    12.8    999.0   0.00
 293   14:20  405.5    69   82.6     6    298.3    11.6    999.0   0.00
 293   14:30  366.6    69   83.3     5    293.6    10.0    999.0   0.00
 293   14:40  340.7    69   82.7     5    296.0    10.0    999.0   0.00
 293   14:50  369.9    69   83.3     6    300.8    11.1    999.0   0.00
 293   15:00  353.0    69   82.6     5    275.7    10.0    999.0   0.00
 293   15:10  346.1    70   81.8     4    276.9     8.3    999.0   0.00
 293   15:20  331.3    70   81.1     5    286.6     9.4    999.0   0.00
 293   15:30  314.4    69   81.5     6    300.1     9.4    999.0   0.00
 293   15:40  294.1    68   82.9     5    292.8    11.1    999.0   0.00
 293   15:50  246.4    68   84.5     6    294.6    11.1    999.0   0.00
 293   16:00  260.2    68   84.8     5    289.2     8.8    999.0   0.00
 293   16:10  239.7    68   84.2     5    282.5     8.3    999.0   0.00
 293   16:20  109.1    68   84.4     5    277.7     9.4    999.0   0.00
 293   16:30  100.7    66   87.9     5    277.7     9.4    999.0   0.00
 293   16:40  138.4    66   89.8     5    289.7    12.2    999.0   0.00
 293   16:50   60.0    66   89.2     4    269.4     7.7    999.0   0.00
 293   17:00   72.6    65   90.4     4    275.3     9.4    999.0   0.00
 293   17:10   66.3    65   90.5     3    277.7     6.6    999.0   0.00
 293   17:20   34.8    64   91.3     4    281.3     9.4    999.0   0.00
 293   17:30   30.7    64   92.6     4    286.6    10.0    999.0   0.00
 293   17:40   13.1    64   93.2     6    288.2     9.4    999.0   0.00
 293   17:50    8.1    63   94.3     6    289.1    11.1    999.0   0.00
 293   18:00    4.3    63   95.0     6    288.7    10.0    999.0   0.00
 293   18:10    2.4    62   95.4     5    289.5     8.3    999.0   0.00
 293   18:20    1.2    62   95.5     5    289.5     8.8    999.0   0.00
 293   18:30    0.4    62   95.6     4    277.4     7.2    999.0   0.00
 293   18:40    0.0    62   95.7     4    286.4     8.3    999.0   0.00
 293   18:50    0.0    62   96.0     4    290.7     7.7    999.0   0.00
 293   19:00    0.0    62   96.1     5    287.0    10.5    999.0   0.00
 293   19:10    0.0    62   96.4     5    292.3    10.0    999.0   0.00
 293   19:20    0.0    62   96.8     4    290.4     8.3    999.0   0.00
 293   19:30    0.0    62   97.0     2    319.3     6.0    999.0   0.00
 293   19:40    0.0    62   97.2     0     57.6     2.1    999.0   0.00
 293   19:50    0.0    62   97.5     0    303.1     3.8    999.0   0.00
 293   20:00    0.0    62   97.8     0    307.9     1.0    999.0   0.00
 293   20:10    0.0    61   98.1     0      0.0     0.0    999.0   0.00
 293   20:20    0.0    60   98.4     0      0.0     0.0    999.0   0.00
 293   20:30    0.0    60   98.8     0      0.0     0.0    999.0   0.00
 293   20:40    0.0    60   99.3     0     69.3     1.6    999.0   0.00
 293   20:50    0.0    60   99.6     0    184.5     1.6    999.0   0.00
 293   21:00    0.0    60   99.7     0      0.0     0.0    999.0   0.00
 293   21:10    0.0    59   99.8     0    167.4     2.1    999.0   0.00
 293   21:20    0.0    58   99.9     0      0.0     0.0    999.0   0.00
 293   21:30    0.0    58   99.9     0     82.8     1.6    999.0   0.00
 293   21:40    0.0    58  100.0     1     91.0     4.4    999.0   0.00
 293   21:50    0.0    59  100.0     0    106.9     2.1    999.0   0.00
 293   22:00    0.0    59  100.0     2     97.1     3.8    999.0   0.00
 293   22:10    0.0    58  100.0     1    102.4     3.8    999.0   0.00
 293   22:20    0.0    58  100.0     2     97.8     4.4    999.0   0.00
 293   22:30    0.0    57  100.0     2    112.4     4.4    999.0   0.00
 293   22:40    0.0    56  100.0     2    103.5     4.9    999.0   0.00
 293   22:50    0.0    55  100.0     2    112.3     3.8    999.0   0.00
 293   23:00    0.0    55  100.0     2    113.2     4.4    999.0   0.00
 293   23:10    0.0    54  100.0     2    121.0     3.8    999.0   0.00
 293   23:20    0.0    53  100.0     1    121.8     3.8    999.0   0.00
 293   23:30    0.0    53  100.0     1    107.1     2.7    999.0   0.00
 293   23:40    0.0    52  100.0     2    120.2     3.8    999.0   0.00
 293   23:50    0.0    52  100.0     1    105.1     3.2    999.0   0.00
 294    0:00    0.0    52  100.0     2    109.8     3.8    999.0   0.00
 294    0:10    0.0    52  100.0     2    136.7     3.8    999.0   0.00
 294    0:20    0.0    52  100.0     2    113.0     4.9    999.0   0.00
 294    0:30    0.0    52  100.0     1    132.6     3.2    999.0   0.00
 294    0:40    0.0    51  100.0     0    135.3     2.1    999.0   0.00
 294    0:50    0.0    51  100.0     1     97.5     2.1    999.0   0.00
 294    1:00    0.0    50  100.0     2    120.2     3.2    999.0   0.00
 294    1:10    0.0    51  100.0     2    115.5     3.8    999.0   0.00
 294    1:20    0.0    50  100.0     2    138.2     3.8    999.0   0.00
 294    1:30    0.0    50  100.0     0     75.7     2.1    999.0   0.00
 294    1:40    0.0    50  100.0     1     88.0     2.7    999.0   0.00
 294    1:50    0.0    50  100.0     0     82.1     2.1    999.0   0.00
 294    2:00    0.0    49  100.0     1    101.2     3.8    999.0   0.00
 294    2:10    0.0    50  100.0     2    105.4     4.9    999.0   0.00
 294    2:20    0.0    51  100.0     2    132.5     4.4    999.0   0.00
 294    2:30    0.0    50  100.0     1    104.9     3.2    999.0   0.00
 294    2:40    0.0    51  100.0     3    102.8     5.5    999.0   0.00
 294    2:50    0.0    52  100.0     2    117.9     5.5    999.0   0.00
 294    3:00    0.0    51  100.0     2    104.0     4.4    999.0   0.00
 294    3:10    0.0    51  100.0     2    117.3     3.8    999.0   0.00
 294    3:20    0.0    51  100.0     2     93.9     4.4    999.0   0.00
 294    3:30    0.0    51  100.0     2     93.4     3.8    999.0   0.00
 294    3:40    0.0    50  100.0     1    218.1     3.2    999.0   0.00
 294    3:50    0.0    50  100.0     1     44.0     3.2    999.0   0.00
 294    4:00    0.0    51  100.0     2    100.7     3.8    999.0   0.00
 294    4:10    0.0    50  100.0     1     94.2     2.7    999.0   0.00
 294    4:20    0.0    49  100.0     0    116.8     2.1    999.0   0.00
 294    4:30    0.0    49  100.0     0    106.0     2.1    999.0   0.00
 294    4:40    0.0    49  100.0     2     98.9     4.4    999.0   0.00
 294    4:50    0.0    50  100.0     2    122.8     3.8    999.0   0.00
 294    5:00    0.0    51  100.0     2     92.8     6.0    999.0   0.00
 294    5:10    0.0    51  100.0     1    135.1     3.2    999.0   0.00
 294    5:20    0.0    51  100.0     1    101.9     3.2    999.0   0.00
 294    5:30    0.0    52  100.0     3    110.9     5.5    999.0   0.00
 294    5:40    0.0    52  100.0     3    104.8     5.5    999.0   0.00
 294    5:50    0.0    51  100.0     2    114.4     4.4    999.0   0.00
 294    6:00    0.0    51  100.0     2    120.5     3.8    999.0   0.00
 294    6:10    0.0    50  100.0     2    131.9     3.2    999.0   0.00
 294    6:20    0.0    50  100.0     1    120.4     3.8    999.0   0.00
 294    6:30    0.0    49  100.0     0    136.8     1.6    999.0   0.00
 294    6:40    0.0    49  100.0     2    118.5     3.8    999.0   0.00
 294    6:50    0.3    49  100.0     2     95.7     5.5    999.0   0.00
 294    7:00    1.3    49  100.0     1    121.8     3.8    999.0   0.00
 294    7:10    3.6    48  100.0     0    148.8     1.6    999.0   0.00
 294    7:20    6.4    48  100.0     1     81.9     4.4    999.0   0.00
 294    7:30    9.6    48  100.0     0    129.7     2.1    999.0   0.00
 294    7:40   14.0    48  100.0     0     67.4     1.6    999.0   0.00
 294    7:50   21.0    48  100.0     1     87.4     3.8    999.0   0.00
 294    8:00   23.5    49  100.0     2    122.9     4.4    999.0   0.00
 294    8:10  122.1    51  100.0     0    185.5     2.1    999.0   0.00
 294    8:20  174.3    53  100.0     0    165.4     1.6    999.0   0.00
 294    8:30  154.7    54  100.0     0      0.0     0.0    999.0   0.00
 294    8:40   72.5    56  100.0     0    173.9     2.1    999.0   0.00
 294    8:50   74.0    56  100.0     0      0.0     0.0    999.0   0.00
 294    9:00  214.0    57  100.0     0    232.4     2.1    999.0   0.00
 294    9:10  202.6    58  100.0     0    210.4     2.7    999.0   0.00
 294    9:20  240.3    60  100.0     1    192.6     2.7    999.0   0.00
 294    9:30  259.5    61  100.0     1    177.8     3.2    999.0   0.00
 294    9:40  281.0    63   99.9     1    199.0     2.7    999.0   0.00
 294    9:50  302.0    64   98.5     2    141.5     4.4    999.0   0.00
 294   10:00  312.4    66   94.1     2    161.1     4.9    999.0   0.00
 294   10:10  333.3    68   90.7     1    135.2     3.8    999.0   0.00
 294   10:20  349.7    69   86.8     2    191.4     4.9    999.0   0.00
 294   10:30  364.6    71   83.6     2    227.7     3.2    999.0   0.00
 294   10:40  378.0    72   80.1     2    250.3     8.3    999.0   0.00
 294   10:50  388.6    72   77.6     5    291.2     8.8    999.0   0.00
 294   11:00  403.9    72   76.7     4    278.6     7.2    999.0   0.00
 294   11:10  415.4    73   74.9     3    271.5     7.2    999.0   0.00
 294   11:20  425.6    73   74.1     5    297.9     9.4    999.0   0.00
 294   11:30  433.4    73   74.6     6    288.3    10.5    999.0   0.00
 294   11:40  442.3    73   73.9     5    278.2     9.4    999.0   0.00
 294   11:50  449.1    73   74.2     6    285.5    10.0    999.0   0.00
 294   12:00  455.8    73   74.9     5    276.2    11.1    999.0   0.00
 294   12:10  461.6    73   74.4     5    279.1     8.8    999.0   0.00
 294   12:20  465.8    73   74.4     5    271.4    10.5    999.0   0.00
 294   12:30  466.2    73   74.5     5    279.1     9.4    999.0   0.00
 294   12:40  472.1    73   74.9     5    272.8    10.0    999.0   0.00
 294   12:50  477.9    73   75.2     5    288.7    10.0    999.0   0.00
 294   13:00  482.3    73   74.6     4    286.4     8.8    999.0   0.00
 294   13:10  504.0    74   74.1     6    275.3     9.4    999.0   0.00
 294   13:20  371.8    74   74.0     5    268.2    11.1    999.0   0.00
 294   13:30  372.3    73   75.0     5    274.3     9.4    999.0   0.00
 294   13:40  450.8    73   75.9     4    273.2     8.3    999.0   0.00

Return to Hayfield, Middle Canyon graphs page.


Western Regional Climate Center,wrcc@dri.edu